Tracking 25710 objects as of 5-Jul-2022
HD Live streaming from Space Station
objects crossing your sky now

FENGYUN 1C DEB

Track FENGYUN 1C DEB now!
10-day predictions


NORAD ID: 31294
Int'l Code: 1999-025BPC
Perigee: 784.7 km
Apogee: 934.1 km
Inclination: 98.6 °
Period: 102.0 minutes
Semi major axis: 7230 km
RCS: 0.012 m2 (small)
Launch date: May 10, 1999
Source: People's Republic of China (PRC)
Launch site: Taiyaun Space Center, China (TSC)

Note: This is SATELLITE DEBRIS
aabbcc
Your satellite tracking list
Your tracking list is empty




NASA's NSSDC Master Catalog

Two Line Element Set (TLE):
1 31294U 99025BPC 22185.35892533  .00000221  00000-0  13687-3 0  9993
2 31294  98.5947 219.5929 0103326 342.2614  17.4961 14.12082044790906
Source of the keplerian elements: AFSPC